#timestamp,LO_Frequency,Hit,StdDev 
1621465555.1,286047018.0,P
1621465556.0,286047018.0,P
1621465575.8,286047018.6,P
1621465595.6,286047017.4,Y
1621465615.5,286047002.2,P
1621465635.3,286047002.4,N
1621465655.1,286047002.0,N
1621465675.9,286047002.4,N
1621465695.7,286047004.0,N
1621465715.6,286047003.6,N
1621465735.4,286047005.1,N
1621465755.2,286047005.8,N
1621465775.1,286047006.8,N
1621465776.0,286047006.8,N
1621465795.8,286047006.5,N
1621465815.6,286047008.7,N
1621465835.5,286047008.1,N
1621465855.3,286047007.7,N
1621465875.2,286047010.6,N
1621465895.9,286047009.5,N
1621465915.7,286047009.3,N
1621465935.6,286047009.7,N
1621465955.4,286047012.2,Y
1621465975.2,286047005.1,P
1621465995.1,286047005.9,P
1621465996.0,286047005.9,P
1621466015.8,286047005.7,Y
1621466035.7,286046999.1,P
1621466055.5,286047000.5,N
1621466075.3,286047000.7,N
1621466095.2,286047002.7,N
1621466115.0,286047001.6,N
1621466115.9,286047001.6,N
1621466135.8,286047004.2,N
1621466155.6,286047002.1,N
1621466175.4,286047004.0,N
1621466195.3,286047005.3,N
1621466215.1,286047006.0,N
1621466235.8,286047003.2,N
1621466255.7,286047005.8,N
1621466275.5,286047004.8,N
1621466295.3,286047006.0,N
1621466315.2,286047007.6,Y
1621466335.0,286047001.4,P
1621466335.9,286047001.4,N
1621466355.8,286047001.5,N
1621466375.6,286047003.9,Y
1621466395.4,286047001.7,P
1621466415.3,286047001.5,P
1621466435.1,286047004.3,P
1621466455.9,286047005.5,Y
1621466475.7,286047003.7,P
1621466495.5,286047002.1,P
1621466515.4,286047001.5,N
1621466535.2,286047002.9,Y
1621466555.0,286047001.6,P
1621466555.9,286047001.6,P
1621466575.8,286047002.6,P
1621466595.6,286047002.7,Y
1621466615.5,286047001.0,P
1621466635.3,286047001.2,N
1621466655.1,286047000.6,N
1621466675.9,286047000.9,N
1621466695.7,286047001.4,N
1621466715.5,286047004.3,Y
1621466735.4,286047002.4,P
1621466755.2,286047002.2,P
1621466775.1,286047001.7,P
1621466776.0,286047001.7,Y
1621466795.8,286047000.4,P
1621466815.6,286047000.9,N
1621466835.5,286047002.8,P
1621466855.3,286047001.6,N
1621466875.2,286047002.5,N
1621466895.9,286047004.1,Y
1621466915.7,286047003.9,P
1621466935.6,286047004.1,P
1621466955.4,286047001.7,N
1621466975.2,286047003.7,Y
1621466995.1,286046999.7,P
1621466996.0,286046999.7,N
1621467015.8,286047002.4,N
1621467035.7,286047002.1,N
1621467055.5,286047002.0,N
1621467075.3,286047001.3,N
1621467095.2,286047004.0,Y
1621467115.0,286047002.2,P
1621467115.9,286047002.2,P
1621467135.8,286047003.5,P
1621467155.6,286047002.1,N
1621467175.4,286047004.2,Y
1621467195.3,286047000.1,P
1621467215.1,286046999.8,N
1621467235.8,286046999.9,N
1621467255.7,286047002.2,N
1621467275.5,286047001.9,N
1621467295.4,286047002.4,N
1621467315.2,286047004.2,Y
1621467335.0,286047001.7,P
1621467335.9,286047001.7,P
1621467355.8,286047000.1,N
1621467375.6,286047004.0,Y
1621467395.5,286047001.6,P
1621467415.3,286047003.1,P
1621467435.1,286047004.4,P
1621467455.9,286047005.9,Y
1621467475.7,286047002.2,P
1621467495.5,286047000.2,N
1621467515.4,286047002.6,N
1621467535.2,286047002.8,N
1621467555.1,286047002.1,N
1621467556.0,286047002.1,N
1621467575.8,286047004.4,Y
1621467595.6,286047002.3,P
1621467615.5,286047002.7,P
1621467635.3,286047002.3,P
1621467655.1,286047000.9,Y
1621467675.9,286046999.6,P
1621467695.7,286046999.1,N
1621467715.6,286047000.7,N
1621467735.4,286047000.4,N
1621467755.2,286047001.1,N
1621467775.1,286047000.3,N
1621467776.0,286047000.3,N
1621467795.8,286047002.2,N
1621467815.6,286047003.5,Y
1621467835.5,286047001.4,P
1621467855.3,286047002.2,P
1621467875.2,286047002.4,P
1621467895.9,286047002.8,Y
1621467915.7,286046999.7,P
1621467935.6,286047000.2,N
1621467955.4,286047001.4,N
1621467975.3,286047003.6,Y
1621467995.1,286047003.2,P
1621467996.0,286047003.2,N
1621468015.8,286047003.6,P
1621468035.7,286047001.3,N
1621468055.5,286047001.4,N
1621468075.3,286047003.9,Y
1621468095.2,286047003.9,P
1621468115.0,286047003.6,P
1621468115.9,286047003.6,P
1621468135.8,286047003.8,Y
1621468155.6,286047000.2,P
1621468175.4,286047000.9,N
1621468195.3,286047004.0,N
1621468215.1,286047001.8,N
1621468235.8,286047001.7,N
1621468255.7,286047001.9,N
1621468275